[[{"header":{"parameterUnit":"m.s-1","parameterCategory":1,"la1":30.2991,"la2":30.254,"lo1":-89.0895,"lo2":-89.0444,"dy":0.0017,"dx":0.0017,"nx":28,"ny":28,"refTime":"2025-06-06T03:00:00:Z","depth":0,"parameterNumber":2,"parameterNumberName":"U-component_of_WINDS"},"data":[0,0,0,0,0,0,0,0,0,0,0,0,0,0,0,0,0,0,0,0,0,0,0,0,0,0,0,0,0,0,0,0,0,0,0,0,0,0,0,0,0,0,0,0,0,0,0,0,0,0,0,0,0,0,0,0,0,0,0.7324,0.7325,0,0.7423,0.7424,0.7426,0.7453,0.7453,0.7452,0.7451,0.7554,0.7557,0.756,0,0,0,0,0,0,0,0,0,0,0,0,0,0.7157,0.716,0.7324,0.7325,0.7326,0.7423,0.7424,0.7426,0.7453,0.7453,0.7452,0.7451,0.7553,0.7557,0.7561,0,0,0,0,0,0,0,0,0,0,0,0,0,0.7241,0.7161,0.7323,0.7351,0.7355,0.7423,0.7425,0.7426,0.7453,0.7452,0.7452,0.7451,0.7552,0.7556,0.7561,0.7608,0,0,0.7576,0.7578,0,0,0,0,0,0,0,0,0.7236,0.7247,0.7346,0.735,0.7354,0.7425,0.7404,0.7487,0.7454,0.7416,0.7451,0.745,0.7512,0.752,0.754,0.7613,0.7618,0.7577,0.758,0.7582,0.7583,0,0,0,0,0,0,0,0.723,0.7242,0.7363,0.7347,0.7352,0.7359,0.737,0.742,0.7467,0.7419,0.7421,0.7433,0.7514,0.7536,0.7543,0.7619,0.7576,0.7581,0.7584,0.7586,0.7737,0.7738,0,0,0,0,0,0,0.7219,0.7237,0.736,0.7366,0.7291,0.7363,0.7375,0.7403,0.7467,0.7476,0.7433,0.7434,0.7528,0.7537,0.7547,0.7607,0.7582,0.7586,0.7589,0.7736,0.7737,0.7738,0,0,0,0,0,0,0.7216,0.723,0.7356,0.7302,0.7319,0.7367,0.7398,0.7405,0.7427,0.7478,0.7486,0.7447,0.7527,0.754,0.7593,0.7611,0.7588,0.7593,0.7735,0.7736,0.7738,0.7728,0,0,0,0,0,0,0.7211,0.7229,0.7247,0.7303,0.7322,0.74,0.7399,0.7408,0.7436,0.7437,0.7493,0.7501,0.7528,0.7586,0.7598,0.7618,0.7597,0.7733,0.7735,0.7737,0.7727,0.7729,0.7731,0,0,0,0,0,0.7205,0.724,0.7248,0.7262,0.7346,0.7401,0.7412,0.7442,0.7437,0.7456,0.7488,0.75,0.7607,0.7591,0.7605,0.7626,0.7732,0.7735,0.7737,0.7726,0.7729,0.7731,0,0,0,0,0,0,0.7185,0.7248,0.7257,0.7311,0.7351,0.7406,0.7431,0.7443,0.7485,0.7485,0.752,0.7532,0.7583,0.761,0.7591,0.7676,0.767,0.7675,0.7657,0.766,0.7661,0.7654,0.7601,0,0,0,0,0,0.7187,0.7227,0.7279,0.7322,0.7342,0.7383,0.7408,0.7427,0.747,0.7487,0.7523,0.7564,0.7607,0.7635,0.7677,0.7731,0.7744,0.7752,0.7754,0.7756,0.776,0.7792,0.7796,0.7746,0.7746,0.7746,0,0,0.7191,0.723,0.7253,0.7319,0.7352,0.7393,0.7396,0.7439,0.747,0.7493,0.7546,0.7574,0.7622,0.7676,0.7701,0.77,0.7777,0.7759,0.7759,0.7763,0.7795,0.7799,0.7804,0.7748,0.7748,0.7748,0,0,0.722,0.7253,0.7293,0.7326,0.7376,0.7403,0.7413,0.7466,0.7486,0.7539,0.7558,0.7595,0.7668,0.7702,0.7728,0.7771,0.7783,0.7784,0.7794,0.7825,0.7829,0.7832,0.7848,0.7854,0.7788,0.7788,0.7788,0,0.7219,0.7282,0.7312,0.7355,0.7383,0.7406,0.7447,0.7477,0.7538,0.7558,0.7555,0.7648,0.7682,0.7744,0.7755,0.7775,0.7788,0.7778,0.7825,0.7829,0.7833,0.7849,0.7855,0.7788,0.7788,0.7788,0.7788,0,0.7279,0.7322,0.7348,0.7406,0.7438,0.7479,0.7516,0.7545,0.7561,0.7589,0.7643,0.7685,0.7736,0.7752,0.7769,0.7818,0.7815,0.7818,0.7813,0.7837,0.7853,0.7859,0.7787,0.7787,0.7787,0.7787,0,0,0.7298,0.7373,0.7383,0.741,0.7467,0.7501,0.7543,0.7594,0.7618,0.7659,0.7696,0.7758,0.7761,0.7792,0.7812,0.7839,0.7871,0.7839,0.7841,0.7844,0.7929,0.7927,0.7933,0.7879,0.788,0.7881,0.7925,0,0.7335,0.7412,0.7441,0.7504,0.7545,0.7567,0.7604,0.7643,0.767,0.7709,0.7738,0.7782,0.7783,0.7801,0.7828,0.7861,0.7888,0.7858,0.7915,0.7916,0.7903,0.7941,0.7939,0.7978,0.7931,0.7932,0.7933,0,0.7388,0.7431,0.7498,0.7551,0.7569,0.7602,0.7651,0.7687,0.7732,0.775,0.7784,0.7803,0.7849,0.784,0.7904,0.7883,0.7908,0.7928,0.793,0.7937,0.7927,0.795,0.7991,0.7998,0.7943,0.7942,0.7941,0,0.7397,0.7471,0.7521,0.7543,0.7606,0.7629,0.7656,0.77,0.7729,0.7772,0.7791,0.7838,0.7864,0.7901,0.7933,0.7923,0.7995,0.7988,0.8011,0.8011,0.8026,0.8025,0.8073,0.804,0.804,0.804,0.804,0,0.7435,0.7476,0.7526,0.7557,0.7603,0.7636,0.7681,0.7709,0.7749,0.7786,0.7808,0.7842,0.7881,0.7921,0.7946,0.7996,0.8007,0.8024,0.803,0.8022,0.802,0.804,0.8038,0.8042,0.8041,0.8041,0.8041,0,0.7453,0.7488,0.7544,0.7599,0.7614,0.7645,0.7693,0.7724,0.7752,0.7798,0.7811,0.7855,0.7903,0.7938,0.8,0.8017,0.8071,0.8077,0.8056,0.8059,0.8081,0.8079,0.8144,0.8155,0.8113,0.8114,0.8114,0,0.7476,0.7508,0.7566,0.7593,0.762,0.7662,0.7692,0.7726,0.7756,0.781,0.7835,0.7884,0.7925,0.8001,0.8039,0.8087,0.8094,0.8114,0.8102,0.8093,0.8096,0.8094,0.8098,0.8116,0.8116,0.8116,0.8117,0,0.7513,0.7529,0.7571,0.7619,0.7654,0.7694,0.7733,0.7754,0.7795,0.7828,0.7877,0.7909,0.7973,0.8022,0.8073,0.8102,0.8117,0.812,0.8128,0.8121,0.8108,0.8117,0.8062,0.8119,0.8118,0.8118,0.8118,0.8118,0.7535,0.7564,0.761,0.7657,0.769,0.7727,0.776,0.7792,0.7834,0.7888,0.7905,0.7957,0.8002,0.8073,0.8102,0.8143,0.8142,0.8154,0.8157,0.816,0.816,0.8101,0.8152,0.8152,0.8152,0.8152,0.8152,0,0.7574,0.7604,0.7647,0.7702,0.7739,0.7749,0.7794,0.7824,0.7869,0.791,0.7951,0.8008,0.8056,0.8098,0.8148,0.8173,0.8181,0.8185,0.8184,0.819,0.8157,0.8145,0.8178,0.8178,0.8178,0.8178,0.8178,0.8177,0.7598,0.765,0.7671,0.7739,0.777,0.7821,0.7846,0.7881,0.7913,0.7977,0.8017,0.8043,0.8085,0.8138,0.8183,0.8194,0.8212,0.8215,0.8228,0.8196,0.8193,0.819,0.8179,0.8218,0.8218,0.8258,0.8259,0.8259]},{"header":{"parameterUnit":"m.s-1","parameterCategory":1,"la1":30.2991,"la2":30.254,"lo1":-89.0895,"lo2":-89.0444,"dy":0.0017,"dx":0.0017,"nx":28,"ny":28,"refTime":"2025-06-06T03:00:00:Z","depth":0,"parameterNumber":3,"parameterNumberName":"V-component_of_WINDS"},"data":[0,0,0,0,0,0,0,0,0,0,0,0,0,0,0,0,0,0,0,0,0,0,0,0,0,0,0,0,0,0,0,0,0,0,0,0,0,0,0,0,0,0,0,0,0,0,0,0,0,0,0,0,0,0,0,0,0,0,5.0396,5.0397,0,5.0483,5.0484,5.0485,5.048,5.0478,5.0477,5.0476,5.056,5.0563,5.0567,0,0,0,0,0,0,0,0,0,0,0,0,0,5.022,5.0223,5.0396,5.0397,5.0398,5.0483,5.0484,5.0486,5.048,5.0478,5.0477,5.0475,5.0559,5.0563,5.0567,0,0,0,0,0,0,0,0,0,0,0,0,0,5.03,5.0224,5.0395,5.0405,5.0407,5.0483,5.0484,5.0486,5.048,5.0478,5.0476,5.0475,5.0558,5.0563,5.0568,5.0637,0,0,5.0583,5.0586,0,0,0,0,0,0,0,0,5.0296,5.0307,5.0403,5.0405,5.0407,5.0469,5.0453,5.0536,5.0481,5.0452,5.0476,5.0474,5.0531,5.0538,5.0558,5.0641,5.0645,5.0584,5.0587,5.0589,5.0591,0,0,0,0,0,0,0,5.029,5.0303,5.043,5.0404,5.0407,5.0404,5.0414,5.0469,5.0501,5.0455,5.0454,5.0465,5.0532,5.0554,5.056,5.0646,5.0584,5.0588,5.0591,5.0593,5.0793,5.0795,0,0,0,0,0,0,5.0283,5.0298,5.0427,5.0433,5.0346,5.0409,5.042,5.0451,5.05,5.0506,5.0467,5.0465,5.0546,5.0554,5.0563,5.065,5.0589,5.0594,5.0597,5.0791,5.0793,5.0796,0,0,0,0,0,0,5.0279,5.0295,5.0424,5.0366,5.0382,5.0414,5.0449,5.0453,5.0476,5.051,5.0515,5.0484,5.0545,5.0556,5.062,5.0653,5.0596,5.0601,5.0788,5.0792,5.0795,5.0823,0,0,0,0,0,0,5.0274,5.0293,5.0321,5.0366,5.0385,5.048,5.0451,5.0457,5.0485,5.0483,5.0527,5.0532,5.0544,5.0612,5.0625,5.0659,5.0605,5.0785,5.079,5.0794,5.0819,5.0827,5.0833,0,0,0,0,0,5.0268,5.0323,5.0322,5.0338,5.0421,5.0482,5.0493,5.0507,5.0488,5.0515,5.0538,5.0531,5.0647,5.0619,5.0633,5.0669,5.0783,5.0788,5.0793,5.0816,5.0825,5.0833,0,0,0,0,0,0,5.0278,5.033,5.0329,5.0401,5.0438,5.0481,5.0516,5.0516,5.0557,5.0553,5.0567,5.0577,5.0641,5.0661,5.0629,5.074,5.0713,5.0721,5.0725,5.0734,5.0741,5.0735,5.0609,0,0,0,0,0,5.0289,5.0337,5.0378,5.0438,5.0457,5.0483,5.0511,5.0519,5.0556,5.0571,5.0598,5.0633,5.0678,5.0707,5.075,5.0822,5.0832,5.0854,5.0861,5.0866,5.0873,5.0915,5.0925,5.0812,5.0812,5.0812,0,0,5.0312,5.0346,5.0374,5.0441,5.047,5.0518,5.0496,5.0547,5.0583,5.0578,5.0641,5.0662,5.0703,5.0772,5.0803,5.079,5.0907,5.0873,5.0877,5.0881,5.0921,5.0932,5.0941,5.0816,5.0815,5.0815,0,0,5.0378,5.0408,5.0462,5.0493,5.0539,5.0557,5.057,5.0614,5.0629,5.0693,5.0691,5.0733,5.0809,5.0839,5.0864,5.0944,5.094,5.0957,5.0994,5.1034,5.1043,5.1051,5.1081,5.1092,5.0964,5.0964,5.0964,0,5.0399,5.0473,5.0489,5.0542,5.0572,5.0573,5.0628,5.0656,5.0712,5.0732,5.0717,5.0815,5.0842,5.0919,5.0939,5.0959,5.0974,5.0952,5.1041,5.1049,5.1057,5.1085,5.1097,5.0966,5.0966,5.0965,5.0965,0,5.0498,5.0549,5.0587,5.0645,5.0679,5.0732,5.0756,5.0788,5.0794,5.0813,5.0879,5.0912,5.0963,5.0981,5.0986,5.1059,5.105,5.1038,5.1011,5.1069,5.1097,5.1108,5.0969,5.0968,5.0967,5.0967,0,0,5.0571,5.064,5.0654,5.0681,5.0733,5.0772,5.0825,5.0878,5.0905,5.0944,5.099,5.1056,5.1046,5.1075,5.1083,5.1118,5.1182,5.1102,5.1103,5.1116,5.1266,5.1276,5.1288,5.1179,5.1181,5.1183,5.1263,0,5.0643,5.0741,5.0758,5.0843,5.0891,5.0894,5.094,5.0977,5.0997,5.1039,5.106,5.1108,5.109,5.1108,5.1143,5.1166,5.1212,5.1161,5.1221,5.1223,5.1212,5.1302,5.1312,5.1386,5.1274,5.1276,5.1277,0,5.074,5.0786,5.0876,5.0924,5.0944,5.0986,5.1036,5.1077,5.1119,5.1131,5.1165,5.1169,5.1225,5.1195,5.1272,5.1237,5.1262,5.1278,5.1281,5.1287,5.1254,5.1312,5.141,5.1422,5.1294,5.1292,5.1291,0,5.0786,5.0869,5.0935,5.0958,5.1015,5.1044,5.1069,5.1109,5.114,5.1183,5.1204,5.1252,5.1278,5.1316,5.1333,5.131,5.1409,5.1381,5.1421,5.1421,5.1442,5.144,5.1546,5.1457,5.1457,5.1457,5.1456,0,5.0865,5.0921,5.0957,5.0997,5.1059,5.1079,5.1139,5.1163,5.1199,5.1243,5.1248,5.1289,5.131,5.1354,5.1368,5.143,5.1442,5.1453,5.1456,5.1453,5.1452,5.147,5.1466,5.146,5.1459,5.1458,5.1458,0,5.0927,5.0954,5.1026,5.1075,5.1089,5.1132,5.1174,5.1213,5.1233,5.129,5.1304,5.1336,5.1389,5.141,5.1474,5.1483,5.1555,5.1554,5.1542,5.1543,5.1583,5.1579,5.1705,5.1723,5.1621,5.1622,5.1623,0,5.0976,5.102,5.1075,5.1106,5.1133,5.1182,5.1215,5.1236,5.1269,5.1322,5.1354,5.1408,5.1451,5.1535,5.1563,5.1613,5.1613,5.1654,5.162,5.1617,5.1615,5.1613,5.1618,5.166,5.1661,5.1662,5.1662,0,5.1061,5.1073,5.1121,5.1174,5.1214,5.1256,5.1297,5.1322,5.1349,5.1387,5.1442,5.1476,5.1543,5.1596,5.1648,5.1672,5.1672,5.1673,5.1685,5.1683,5.1675,5.1681,5.156,5.167,5.1669,5.1669,5.1668,5.1668,5.1119,5.1159,5.1204,5.1258,5.1292,5.1331,5.1371,5.1398,5.1445,5.1503,5.1512,5.1572,5.1613,5.1683,5.171,5.1756,5.1745,5.1762,5.1767,5.1771,5.1774,5.1667,5.1765,5.1765,5.1765,5.1764,5.1764,0,5.1205,5.1236,5.1285,5.1344,5.1387,5.1386,5.1432,5.1467,5.152,5.156,5.1604,5.1669,5.1721,5.1754,5.1807,5.1837,5.1839,5.185,5.1849,5.1855,5.178,5.1765,5.1849,5.1849,5.1849,5.1849,5.1849,5.1849,5.1255,5.1323,5.134,5.1425,5.1454,5.1514,5.1541,5.1577,5.161,5.1682,5.1727,5.1749,5.1787,5.1842,5.189,5.1899,5.1918,5.1931,5.1938,5.1868,5.1859,5.1851,5.1837,5.1935,5.1935,5.2009,5.201,5.201]}]]